Weather History for Kingstree, SC

Change the Weather History Date:

Sunday, November 25, 2012

  Actual Average Record
Temperature  
Mean Temperature 44 °F -  
Max Temperature 60 °F 66 °F 77 °F (2010)
Min Temperature 28 °F 36 °F 23 °F (2013)
Degree Days  
Heating Degree Days 21    
Moisture  
Dew Point 32 °F    
Average Humidity 72    
Maximum Humidity 100    
Minimum Humidity 36    
Precipitation  
Precipitation 0.00 in - - ()
Sea Level Pressure  
Sea Level Pressure 30.15 in    
Wind  
Wind Speed 1 mph (WSW)    
Max Wind Speed 7 mph    
Max Gust Speed -    
Visibility 10 miles    
Events      
Averages and records for this station are not official NWS values.
T = Trace of Precipitation, MM = Missing Value Source: NWS Daily Summary

Daily Weather History Graph

Daily Weather History Graph

Search for Another Location

Airport:

Trip Planner

Search our weather history database for the weather conditions in past years. The results will help you decide how hot, cold, wet, or windy it might be!

Date:

Astronomy

Nov. 25, 2012 Rise Set
Actual Time 7:01 AM EST 5:11 PM EST
Civil Twilight 6:34 AM EST 5:38 PM EST
Nautical Twilight 6:03 AM EST 6:09 PM EST
Astronomical Twilight 5:33 AM EST 6:39 PM EST
Moon 3:23 PM EST (11/25) 4:19 AM EST (11/25)
Length of Visible Light 11h 04m
Length of Day
10h 10m
Waxing Gibbous, 93% of the Moon is Illuminated
Nov 25
Waxing Gibbous
Nov 28
Full
Dec 6
Last Quarter
Dec 13
New
Dec 20
First Quarter

Hourly Weather History & Observations

Time (EST) Temp. Windchill Dew Point Humidity Pressure Visibility Wind Dir Wind Speed Gust Speed Precip Events Conditions
12:15 AM 33.8 °F - 33.8 °F 100% 30.12 in 10.0 mi Calm Calm - N/A   Clear
12:35 AM 33.8 °F - 32.0 °F 93% 30.13 in 10.0 mi Calm Calm - N/A   Clear
1:15 AM 37.4 °F 34.9 °F 30.2 °F 75% 30.11 in 10.0 mi North 3.5 mph - N/A   Clear
1:35 AM 37.4 °F 33.8 °F 30.2 °F 75% 30.11 in 10.0 mi North 4.6 mph - N/A   Clear
1:55 AM 37.4 °F 33.8 °F 28.4 °F 70% 30.11 in 10.0 mi NE 4.6 mph - N/A   Clear
2:15 AM 37.4 °F - 28.4 °F 70% 30.13 in 10.0 mi Calm Calm - N/A   Clear
2:55 AM 35.6 °F - 28.4 °F 75% 30.14 in 10.0 mi Calm Calm - N/A   Clear
3:15 AM 35.6 °F - 28.4 °F 75% 30.14 in 10.0 mi Calm Calm - N/A   Clear
3:35 AM 33.8 °F - 28.4 °F 81% 30.14 in 10.0 mi Calm Calm - N/A   Clear
4:15 AM 32.0 °F - 28.4 °F 87% 30.15 in 10.0 mi Calm Calm - N/A   Clear
4:35 AM 32.0 °F - 28.4 °F 87% 30.15 in 10.0 mi Calm Calm - N/A   Clear
4:55 AM 32.0 °F - 28.4 °F 87% 30.16 in 10.0 mi Calm Calm - N/A   Clear
5:15 AM 30.2 °F - 28.4 °F 93% 30.16 in 10.0 mi Calm Calm - N/A   Clear
5:35 AM 30.2 °F - 28.4 °F 93% 30.17 in 10.0 mi Calm Calm - N/A   Clear
5:55 AM 30.2 °F - 28.4 °F 93% 30.17 in 10.0 mi Calm Calm - N/A   Clear
6:15 AM 28.4 °F - 28.4 °F 100% 30.17 in 10.0 mi Calm Calm - N/A   Clear
6:35 AM 30.2 °F - 28.4 °F 93% 30.18 in 10.0 mi Calm Calm - N/A   Clear
6:55 AM 30.2 °F - 28.4 °F 93% 30.19 in 10.0 mi Calm Calm - N/A   Clear
7:15 AM 30.2 °F - 28.4 °F 93% 30.19 in 10.0 mi Calm Calm - N/A   Clear
7:35 AM 30.2 °F - 28.4 °F 93% 30.19 in 10.0 mi Calm Calm - N/A   Clear
7:55 AM 32.0 °F - 30.2 °F 93% 30.19 in 10.0 mi Calm Calm - N/A   Clear
8:15 AM 32.0 °F - 32.0 °F 100% 30.20 in 10.0 mi Calm Calm - N/A   Clear
8:35 AM 35.6 °F - 30.2 °F 81% 30.20 in 10.0 mi Calm Calm - N/A   Clear
8:55 AM 37.4 °F 34.9 °F 30.2 °F 75% 30.22 in 10.0 mi NE 3.5 mph - N/A   Clear
9:15 AM 41.0 °F 38.0 °F 28.4 °F 61% 30.22 in 10.0 mi NNE 4.6 mph - N/A   Clear
9:35 AM 41.0 °F 38.0 °F 28.4 °F 61% 30.22 in 10.0 mi North 4.6 mph - N/A   Clear
9:55 AM 42.8 °F - 28.4 °F 57% 30.23 in 10.0 mi Calm Calm - N/A   Clear
10:15 AM 44.6 °F - 28.4 °F 53% 30.23 in 10.0 mi Calm Calm - N/A   Clear
10:35 AM 44.6 °F - 28.4 °F 53% 30.22 in 10.0 mi Calm Calm - N/A   Clear
10:55 AM 46.4 °F 45.2 °F 30.2 °F 53% 30.21 in 10.0 mi NNE 3.5 mph - N/A   Clear
11:15 AM 46.4 °F 44.3 °F 30.2 °F 53% 30.20 in 10.0 mi NW 4.6 mph - N/A   Clear
11:35 AM 48.2 °F - 30.2 °F 50% 30.19 in 10.0 mi Calm Calm - N/A   Clear
11:55 AM 50.0 °F - 30.2 °F 47% 30.18 in 10.0 mi Calm Calm - N/A   Clear
12:15 PM 51.8 °F - 30.2 °F 44% 30.17 in 10.0 mi Calm Calm - N/A   Clear
12:55 PM 53.6 °F - 32.0 °F 44% 30.14 in 10.0 mi SE 3.5 mph - N/A   Clear
1:15 PM 55.4 °F - 32.0 °F 41% 30.13 in 10.0 mi SW 4.6 mph - N/A   Clear
1:35 PM 55.4 °F - 32.0 °F 41% 30.12 in 10.0 mi SSW 3.5 mph - N/A   Clear
1:55 PM 57.2 °F - 32.0 °F 38% 30.11 in 10.0 mi South 5.8 mph - N/A   Clear
2:15 PM 57.2 °F - 32.0 °F 38% 30.11 in 10.0 mi South 5.8 mph - N/A   Clear
2:35 PM 59.0 °F - 32.0 °F 36% 30.10 in 10.0 mi SSW 5.8 mph - N/A   Clear
2:55 PM 59.0 °F - 32.0 °F 36% 30.10 in 10.0 mi West 4.6 mph - N/A   Clear
3:15 PM 60.8 °F - 33.8 °F 36% 30.09 in 10.0 mi SSW 6.9 mph - N/A   Clear
3:35 PM 59.0 °F - 32.0 °F 36% 30.09 in 10.0 mi WSW 6.9 mph - N/A   Clear
3:55 PM 59.0 °F - 32.0 °F 36% 30.09 in 10.0 mi WSW 5.8 mph - N/A   Clear
4:15 PM 59.0 °F - 33.8 °F 39% 30.09 in 10.0 mi WSW 4.6 mph - N/A   Clear
4:35 PM 57.2 °F - 33.8 °F 41% 30.09 in 10.0 mi WSW 3.5 mph - N/A   Clear
4:55 PM 55.4 °F - 33.8 °F 44% 30.09 in 10.0 mi Calm Calm - N/A   Clear
5:15 PM 51.8 °F - 37.4 °F 58% 30.09 in 10.0 mi Calm Calm - N/A   Clear
5:35 PM 50.0 °F - 37.4 °F 62% 30.10 in 10.0 mi Calm Calm - N/A   Clear
5:55 PM 46.4 °F - 37.4 °F 71% 30.10 in 10.0 mi Calm Calm - N/A   Clear
6:15 PM 44.6 °F - 37.4 °F 76% 30.11 in 10.0 mi Calm Calm - N/A   Clear
6:35 PM 42.8 °F - 35.6 °F 76% 30.12 in 10.0 mi Calm Calm - N/A   Clear
6:55 PM 42.8 °F - 37.4 °F 81% 30.12 in 10.0 mi Calm Calm - N/A   Clear
7:15 PM 41.0 °F - 35.6 °F 81% 30.12 in 10.0 mi Calm Calm - N/A   Clear
7:35 PM 41.0 °F - 35.6 °F 81% 30.13 in 10.0 mi Calm Calm - N/A   Clear
7:55 PM 39.2 °F - 35.6 °F 87% 30.13 in 10.0 mi Calm Calm - N/A   Clear
8:15 PM 39.2 °F - 35.6 °F 87% 30.13 in 10.0 mi Calm Calm - N/A   Clear
8:35 PM 37.4 °F - 35.6 °F 93% 30.13 in 10.0 mi Calm Calm - N/A   Clear
9:15 PM 37.4 °F - 35.6 °F 93% 30.14 in 10.0 mi Calm Calm - N/A   Clear
9:35 PM 37.4 °F - 35.6 °F 93% 30.14 in 10.0 mi Calm Calm - N/A   Clear
9:55 PM 37.4 °F - 35.6 °F 93% 30.14 in 10.0 mi Calm Calm - N/A   Clear
10:15 PM 37.4 °F - 35.6 °F 93% 30.14 in 10.0 mi Calm Calm - N/A   Clear
10:35 PM 35.6 °F - 33.8 °F 93% 30.14 in 10.0 mi Calm Calm - N/A   Clear
10:55 PM 37.4 °F - 35.6 °F 93% 30.15 in 10.0 mi Calm Calm - N/A   Clear
11:15 PM 37.4 °F - 35.6 °F 93% 30.15 in 10.0 mi Calm Calm - N/A   Clear
11:35 PM 35.6 °F - 33.8 °F 93% 30.15 in 10.0 mi Calm Calm - N/A   Clear
11:55 PM 35.6 °F - 35.6 °F 100% 30.15 in 10.0 mi Calm Calm - N/A   Clear